Terminal Aerodrome Forecast
Issued by NWS Portland, OR

Home | Current Version | Previous Version | Text Only | Print | Product List | Glossary On
Versions: 1 2 3 4 5 6 7 8 9 10 11 12 13 14 15 16 17 18 19 20 21 22 23 24 25 26 27 28 29 30 31 32 33 34 35 36 37 38 39 40 41 42 43 44 45 46
000
FTUS46 KPQR 120306 AAA
TAFPDX
TAF AMD
KPDX 120306Z 1203/1224 08007KT P6SM -SHRA SCT060 OVC100
     FM120700 12005KT P6SM SCT050 OVC080
     FM121800 12007KT 5SM -RA BR BKN035 OVC050=

USA.gov is the U.S. government's official web portal to all federal, state and local government web resources and services.